�������l�o���
Date,Time,MP-1(��Sv/h),MP-2(��Sv/h),MP-3(��Sv/h),MP-4(��Sv/h),MP-5(��Sv/h),MP-6(��Sv/h),MP-7(��Sv/h),MP-8(��Sv/h),����,����(m/s),���J
2017/04/21,00:00,1.019,1.640,1.100,1.968,1.345,0.541,0.994,0.922,��쓌,4.9,��
2017/04/21,00:10,1.017,1.646,1.101,1.966,1.344,0.542,0.995,0.920,��,4.3,��
2017/04/21,00:20,1.019,1.645,1.102,1.968,1.347,0.542,0.993,0.920,��,4.3,��
2017/04/21,00:30,1.017,1.644,1.101,1.968,1.344,0.542,0.994,0.922,��,3.9,��
2017/04/21,00:40,1.018,1.642,1.103,1.967,1.344,0.543,0.994,0.922,��,4.8,��
2017/04/21,00:50,1.016,1.646,1.100,1.969,1.345,0.543,0.993,0.922,��,2.0,��
2017/04/21,01:00,1.018,1.642,1.101,1.966,1.344,0.543,0.997,0.921,��,1.2,��
2017/04/21,01:10,1.017,1.643,1.099,1.969,1.344,0.546,0.994,0.922,��,1.2,��
2017/04/21,01:20,1.018,1.644,1.102,1.971,1.346,0.543,0.996,0.920,�k��,1.2,��
2017/04/21,01:30,1.016,1.643,1.101,1.968,1.343,0.541,0.995,0.922,�k,1.5,��
2017/04/21,01:40,1.017,1.643,1.103,1.968,1.343,0.543,0.996,0.922,�k�k��,0.9,��
2017/04/21,01:50,1.017,1.644,1.100,1.968,1.342,0.541,0.994,0.921,�k�k��,1.1,��
2017/04/21,02:00,1.018,1.642,1.103,1.967,1.344,0.541,0.994,0.921,�k�k��,0.9,��
2017/04/21,02:10,1.017,1.640,1.103,1.968,1.343,0.544,0.992,0.920,��,0.6,��
2017/04/21,02:20,1.017,1.641,1.101,1.968,1.344,0.542,0.994,0.921,-,CALM,��
2017/04/21,02:30,1.017,1.644,1.101,1.967,1.343,0.545,0.996,0.921,��쓌,1.2,��
2017/04/21,02:40,1.018,1.642,1.102,1.972,1.342,0.544,0.995,0.920,��쓌,0.9,��
2017/04/21,02:50,1.019,1.644,1.100,1.967,1.342,0.542,0.995,0.922,��쓌,1.5,��
2017/04/21,03:00,1.017,1.643,1.102,1.966,1.343,0.541,0.994,0.921,��쓌,0.8,��
2017/04/21,03:10,1.018,1.641,1.100,1.970,1.346,0.543,0.994,0.921,-,CALM,��
2017/04/21,03:20,1.017,1.644,1.102,1.967,1.346,0.543,0.994,0.921,-,CALM,��
2017/04/21,03:30,1.018,1.644,1.101,1.968,1.346,0.544,0.995,0.920,-,CALM,��
2017/04/21,03:40,1.018,1.642,1.102,1.969,1.343,0.541,0.994,0.921,��쓌,0.8,��
2017/04/21,03:50,1.018,1.642,1.100,1.967,1.343,0.543,0.994,0.921,-,CALM,��
2017/04/21,04:00,1.017,1.644,1.103,1.969,1.345,0.543,0.995,0.922,-,CALM,��
2017/04/21,04:10,1.017,1.642,1.102,1.972,1.345,0.544,0.996,0.921,-,CALM,��
2017/04/21,04:20,1.017,1.646,1.101,1.968,1.345,0.544,0.995,0.924,��쓌,0.8,��
2017/04/21,04:30,1.018,1.643,1.102,1.967,1.344,0.541,0.993,0.921,-,CALM,��
2017/04/21,04:40,1.019,1.645,1.102,1.969,1.344,0.543,0.994,0.923,��쓌,1.2,��
2017/04/21,04:50,1.017,1.645,1.101,1.965,1.344,0.543,0.994,0.922,��쓌,0.9,��
2017/04/21,05:00,1.018,1.645,1.103,1.969,1.346,0.544,0.994,0.920,�쓌,0.9,��
2017/04/21,05:10,1.016,1.645,1.103,1.971,1.345,0.543,0.992,0.920,-,CALM,��
2017/04/21,05:20,1.019,1.645,1.100,1.970,1.345,0.544,0.995,0.922,�k�k��,0.8,��
2017/04/21,05:30,1.018,1.644,1.103,1.970,1.345,0.542,0.994,0.922,�k�k��,1.7,��
2017/04/21,05:40,1.019,1.641,1.102,1.972,1.342,0.543,0.995,0.922,�k��,1.7,��
2017/04/21,05:50,1.019,1.644,1.102,1.968,1.344,0.544,0.994,0.922,�k�k��,1.5,��
2017/04/21,06:00,1.018,1.643,1.102,1.969,1.347,0.541,0.995,0.922,-,CALM,��
2017/04/21,06:10,1.017,1.642,1.105,1.967,1.344,0.543,0.995,0.922,�k�k��,2.6,��
2017/04/21,06:20,1.018,1.643,1.104,1.967,1.345,0.543,0.995,0.922,�k�k��,4.9,�L
2017/04/21,06:30,1.018,1.643,1.102,1.969,1.346,0.543,0.997,0.922,�k�k��,6.8,�L
2017/04/21,06:40,1.018,1.642,1.103,1.970,1.345,0.545,0.993,0.922,�k�k��,6.0,�L
2017/04/21,06:50,1.017,1.642,1.103,1.970,1.346,0.543,0.996,0.923,�k�k��,5.6,�L
2017/04/21,07:00,1.019,1.647,1.101,1.973,1.346,0.544,0.995,0.923,�k�k��,5.4,�L
2017/04/21,07:10,1.019,1.642,1.102,1.971,1.344,0.543,0.994,0.923,�k�k��,4.6,��
2017/04/21,07:20,1.018,1.644,1.104,1.969,1.347,0.544,0.996,0.923,�k�k��,4.3,��
2017/04/21,07:30,1.019,1.646,1.100,1.969,1.343,0.542,0.995,0.921,�k�k��,3.1,�L
2017/04/21,07:40,1.021,1.646,1.103,1.973,1.348,0.542,0.995,0.921,�k�k��,2.2,�L
2017/04/21,07:50,1.019,1.642,1.102,1.975,1.346,0.544,0.994,0.923,�k��,1.7,��
2017/04/21,08:00,1.018,1.642,1.104,1.971,1.346,0.545,0.994,0.923,�k��,1.4,��
2017/04/21,08:10,1.019,1.644,1.103,1.968,1.348,0.544,0.995,0.922,���k��,0.9,��
2017/04/21,08:20,1.022,1.643,1.104,1.971,1.346,0.544,0.997,0.922,��쐼,0.9,��
2017/04/21,08:30,1.021,1.644,1.103,1.971,1.346,0.543,0.996,0.924,���k��,0.9,��
2017/04/21,08:40,1.021,1.646,1.103,1.969,1.347,0.544,0.996,0.923,�k�k��,0.8,��
2017/04/21,08:50,1.022,1.645,1.104,1.970,1.346,0.545,0.994,0.923,�k�k��,0.8,��
2017/04/21,09:00,1.020,1.646,1.104,1.974,1.346,0.544,0.995,0.922,�k,0.9,��
2017/04/21,09:10,1.022,1.644,1.105,1.974,1.347,0.543,0.995,0.923,�k��,0.6,��
2017/04/21,09:20,1.021,1.649,1.105,1.970,1.350,0.544,0.995,0.922,�쓌,2.0,��
2017/04/21,09:30,1.040,1.648,1.106,1.976,1.346,0.542,0.995,0.922,�쓌,2.3,��
2017/04/21,09:40,1.057,1.645,1.106,1.972,1.345,0.541,0.995,0.922,���쓌,1.7,��
2017/04/21,09:50,1.023,1.645,1.106,1.973,1.345,0.540,0.996,0.921,�k�k��,2.8,��
2017/04/21,10:00,1.023,1.643,1.107,1.974,1.345,0.542,0.994,0.919,�k�k��,3.3,��
2017/04/21,10:10,1.022,1.642,1.105,1.971,1.340,0.540,0.996,0.920,�k�k��,2.0,�L
2017/04/21,10:20,1.015,1.642,1.106,1.973,1.342,0.540,0.995,0.921,���k��,1.5,�L
2017/04/21,10:30,1.019,1.643,1.106,1.976,1.343,0.541,0.993,0.922,�k�k��,1.4,�L
2017/04/21,10:40,1.019,1.641,1.102,1.971,1.344,0.541,0.996,0.918,�k�k��,1.2,��
2017/04/21,10:50,1.019,1.642,1.105,1.972,1.344,0.535,0.997,0.920,�k,2.6,��
2017/04/21,11:00,1.021,1.643,1.105,1.972,1.342,0.542,0.996,0.919,�k,3.7,��
2017/04/21,11:10,1.022,1.644,1.106,1.974,1.345,0.542,0.995,0.920,�k,3.2,��
2017/04/21,11:20,1.023,1.645,1.106,1.976,1.346,0.543,0.994,0.921,�k�k��,2.6,��
2017/04/21,11:30,1.023,1.645,1.107,1.974,1.345,0.543,0.994,0.919,�k,2.8,�L
2017/04/21,11:40,1.022,1.646,1.105,1.972,1.344,0.542,0.996,0.921,�k�k��,1.9,�L
2017/04/21,11:50,1.023,1.641,1.107,1.972,1.339,0.542,0.995,0.921,�k,1.4,�L
2017/04/21,12:00,1.022,1.646,1.108,1.974,1.323,0.544,0.995,0.920,��쓌,0.9,�L
2017/04/21,12:10,1.022,1.645,1.107,1.973,1.344,0.542,0.994,0.919,��쐼,1.4,�L
2017/04/21,12:20,1.023,1.645,1.103,1.974,1.348,0.545,0.993,0.921,��쐼,1.2,�L
2017/04/21,12:30,1.023,1.647,1.105,1.974,1.344,0.544,0.996,0.924,��,0.9,�L
2017/04/21,12:40,1.026,1.648,1.105,1.976,1.347,0.544,0.995,0.922,��,1.2,�L
2017/04/21,12:50,1.024,1.647,1.105,1.975,1.350,0.544,0.994,0.924,��,1.2,�L
2017/04/21,13:00,1.022,1.649,1.106,1.974,1.349,0.544,0.994,0.923,��,2.3,�L
2017/04/21,13:10,1.023,1.645,1.105,1.973,1.347,0.545,0.996,0.925,��쓌,2.0,�L
2017/04/21,13:20,1.023,1.647,1.104,1.975,1.347,0.544,0.994,0.923,��쓌,3.6,��
2017/04/21,13:30,1.024,1.648,1.107,1.976,1.350,0.546,0.995,0.924,��쓌,3.1,��
2017/04/21,13:40,1.024,1.645,1.108,1.975,1.348,0.545,0.996,0.924,��,4.9,�L
2017/04/21,13:50,1.023,1.650,1.105,1.972,1.343,0.546,0.995,0.924,��,6.2,�L
2017/04/21,14:00,1.021,1.648,1.104,1.972,1.339,0.545,0.994,0.924,��,7.5,�L
2017/04/21,14:10,1.021,1.644,1.105,1.971,1.346,0.546,0.994,0.923,��,8.9,�L
2017/04/21,14:20,1.022,1.644,1.103,1.970,1.345,0.546,0.992,0.921,��,10.2,�L
2017/04/21,14:30,1.023,1.646,1.107,1.973,1.349,0.545,0.993,0.923,��,9.3,�L
2017/04/21,14:40,1.025,1.645,1.101,1.972,1.348,0.546,0.995,0.923,��,7.0,��
2017/04/21,14:50,1.024,1.646,1.106,1.973,1.350,0.545,0.994,0.921,��,6.8,�L
2017/04/21,15:00,1.023,1.646,1.107,1.973,1.347,0.546,0.994,0.922,��쓌,7.4,��
2017/04/21,15:10,1.024,1.645,1.106,1.975,1.349,0.544,0.993,0.923,��쓌,7.9,��
2017/04/21,15:20,1.023,1.649,1.107,1.972,1.345,0.545,0.993,0.923,��쓌,8.4,��
2017/04/21,15:30,1.024,1.645,1.104,1.974,1.343,0.545,0.994,0.923,��쓌,8.2,��
2017/04/21,15:40,1.025,1.647,1.107,1.975,1.346,0.546,0.994,0.920,��쓌,7.7,��
2017/04/21,15:50,1.024,1.647,1.109,1.974,1.350,0.543,0.993,0.922,��쓌,7.1,��
2017/04/21,16:00,1.025,1.649,1.106,1.974,1.341,0.544,0.994,0.923,��쓌,6.6,��
2017/04/21,16:10,1.025,1.649,1.107,1.973,1.343,0.544,0.994,0.923,��쓌,6.5,��
2017/04/21,16:20,1.025,1.646,1.105,1.975,1.343,0.544,0.993,0.921,��쓌,6.6,��
2017/04/21,16:30,1.024,1.648,1.106,1.972,1.345,0.543,0.994,0.922,��쓌,5.4,��
2017/04/21,16:40,1.023,1.645,1.105,1.975,1.345,0.545,0.993,0.923,��쓌,5.8,��
2017/04/21,16:50,1.024,1.646,1.106,1.975,1.345,0.544,0.994,0.923,��쓌,5.2,��
2017/04/21,17:00,1.024,1.646,1.106,1.973,1.343,0.543,0.993,0.923,��쓌,4.0,��
2017/04/21,17:10,1.025,1.648,1.108,1.972,1.344,0.544,0.995,0.923,��쓌,4.7,��
2017/04/21,17:20,1.024,1.649,1.106,1.975,1.344,0.545,0.995,0.925,��쓌,5.3,��
2017/04/21,17:30,1.024,1.651,1.108,1.968,1.344,0.545,0.996,0.922,��쓌,5.7,��
2017/04/21,17:40,1.023,1.650,1.108,1.973,1.344,0.546,0.994,0.922,��쓌,5.4,��
2017/04/21,17:50,1.025,1.648,1.105,1.971,1.343,0.546,0.993,0.924,��,4.9,��
2017/04/21,18:00,1.023,1.647,1.106,1.975,1.344,0.547,0.994,0.924,��쓌,7.0,�L
2017/04/21,18:10,1.025,1.648,1.106,1.974,1.345,0.545,0.993,0.923,��,6.6,�L
2017/04/21,18:20,1.025,1.649,1.108,1.971,1.345,0.545,0.996,0.923,��,6.3,�L
2017/04/21,18:30,1.022,1.649,1.105,1.975,1.342,0.547,0.996,0.921,��,5.5,�L
2017/04/21,18:40,1.024,1.648,1.105,1.972,1.343,0.546,0.994,0.920,��,5.5,��
2017/04/21,18:50,1.022,1.648,1.106,1.973,1.343,0.546,0.996,0.923,��,5.0,��
2017/04/21,19:00,1.024,1.646,1.105,1.974,1.344,0.546,0.995,0.922,��,4.8,��
2017/04/21,19:10,1.021,1.646,1.104,1.974,1.349,0.546,0.996,0.924,��쐼,1.9,��
2017/04/21,19:20,1.024,1.646,1.103,1.973,1.348,0.549,0.997,0.922,�k�k��,5.6,��
2017/04/21,19:30,1.022,1.648,1.104,1.970,1.347,0.546,0.994,0.922,�k,5.0,��
2017/04/21,19:40,1.024,1.649,1.106,1.972,1.346,0.546,0.996,0.921,���쓌,1.2,��
2017/04/21,19:50,1.024,1.647,1.105,1.970,1.347,0.546,0.994,0.923,��쓌,2.0,��
2017/04/21,20:00,1.023,1.646,1.106,1.973,1.345,0.546,0.995,0.922,��,2.6,��
2017/04/21,20:10,1.023,1.649,1.104,1.973,1.347,0.546,0.995,0.920,��쐼,2.2,��
2017/04/21,20:20,1.023,1.650,1.104,1.974,1.345,0.545,0.996,0.921,���쐼,1.2,��
2017/04/21,20:30,1.024,1.643,1.106,1.971,1.345,0.545,0.996,0.922,���k��,1.1,�L
2017/04/21,20:40,1.024,1.646,1.104,1.971,1.347,0.546,0.996,0.922,���k��,2.0,��
2017/04/21,20:50,1.026,1.646,1.105,1.970,1.345,0.545,0.996,0.923,���k��,2.6,��
2017/04/21,21:00,1.025,1.642,1.106,1.971,1.343,0.546,0.996,0.921,�k��,3.0,��
2017/04/21,21:10,1.024,1.645,1.105,1.970,1.345,0.544,0.998,0.922,�k��,4.3,��
2017/04/21,21:20,1.025,1.647,1.105,1.971,1.348,0.545,0.996,0.922,�k�k��,4.4,��
2017/04/21,21:30,1.025,1.645,1.104,1.968,1.345,0.546,0.998,0.921,�k�k��,3.4,��
2017/04/21,21:40,1.023,1.642,1.106,1.971,1.346,0.545,0.996,0.920,�k�k��,3.7,��
2017/04/21,21:50,1.023,1.647,1.105,1.967,1.347,0.546,0.995,0.922,�k�k��,4.2,��
2017/04/21,22:00,1.023,1.645,1.103,1.968,1.345,0.543,0.998,0.922,�k,3.0,��
2017/04/21,22:10,1.022,1.645,1.104,1.969,1.347,0.545,0.995,0.923,�k,2.3,��
2017/04/21,22:20,1.020,1.645,1.102,1.970,1.345,0.545,0.997,0.920,�k,2.9,��
2017/04/21,22:30,1.019,1.643,1.103,1.968,1.345,0.544,0.997,0.920,�k�k��,2.2,��
2017/04/21,22:40,1.018,1.648,1.103,1.971,1.345,0.546,0.995,0.920,�k,2.8,��
2017/04/21,22:50,1.021,1.646,1.102,1.968,1.345,0.544,0.996,0.922,�k,2.9,��
2017/04/21,23:00,1.018,1.646,1.102,1.970,1.346,0.544,0.997,0.920,�k,3.1,��
2017/04/21,23:10,1.020,1.645,1.103,1.969,1.344,0.544,0.996,0.922,�k,2.6,��
2017/04/21,23:20,1.016,1.643,1.104,1.968,1.345,0.543,0.996,0.921,�k�k��,2.3,��
2017/04/21,23:30,1.018,1.645,1.103,1.969,1.343,0.543,0.994,0.921,�k,3.0,��
2017/04/21,23:40,1.019,1.644,1.100,1.970,1.345,0.543,0.993,0.922,�k�k��,2.9,��
2017/04/21,23:50,1.018,1.643,1.103,1.969,1.345,0.542,0.995,0.921,�k�k��,2.6,��
